User: anonymous   Login
Location: M.A.R.S.Observatory
(35.4031°N, 81.5481°W)
Time: 15:08:33
(UTC-04:00)
Language:

SL-8 R/B - Orbit

View from above orbital plane
View from above orbital plane
View from above satellite
View from above satellite

Ground track
Ground track

The orbit data is extracted from the following two-line orbital elements,

1 33066U 08031G   17113.89156778 +.00000052 +00000-0 +41374-4 0  9994
2 33066 048.4450 004.3625 0008059 248.6633 166.5086 14.69530209474724
Epoch (UTC): 23 April 2017 21:23:51
Eccentricity: 0.0008059
inclination: 48.4450°
perigee height: 657 km
apogee height: 668 km
right ascension of ascending node: 4.3625°
argument of perigee: 248.6633°
revolutions per day: 14.69530209
mean anomaly at epoch: 166.5086°
orbit number at epoch: 47472

The dashed part of the orbit path shows where the satellite is in the earth's shadow,  

DLR